Tracking 30692 objects as of 16-Jun-2025
HD Live streaming from Space Station
objects crossing your sky now

FENGYUN 1C DEB

Track FENGYUN 1C DEB now!
10-day predictions


NORAD ID: 30362
Int'l Code: 1999-025ABZ
Perigee: 795.8 km
Apogee: 936.6 km
Inclination: 99.0 °
Period: 102.1 minutes
Semi major axis: 7237 km
RCS: 0.04 m2 (small)
Launch date: May 10, 1999
Source: People's Republic of China (PRC)
Launch site: Taiyaun Space Center, China (TSC)

Note: This is SATELLITE DEBRIS
Your satellite tracking list
Your tracking list is empty




NASA's NSSDC Master Catalog

Two Line Element Set (TLE):
1 30362U 99025ABZ 25166.38037901  .00002527  00000-0  13920-2 0  9993
2 30362  99.0490  87.9262 0097264 128.1138 232.8851 14.10099444936253
Source of the keplerian elements: AFSPC